Location: Bernadets
(43.3537°N, 0.3167°E)
Time: 00:46:25
(UTC+00:00)

CZ-4C R/B - Pass Details

Date: 24 October 2021
Orbit: 403 x 482 km, 97.7° (Epoch: 27 November)

Event Time Altitude Azimuth Distance (km) Brightness Sun altitude
Rises 18:31:51 0° 9° (N) 2,455 6.5 -17.1°
Reaches altitude 10° 18:33:56 10° 5° (N) 1,564 5.6 -17.5°
Maximum altitude 18:37:14 60° 285° (WNW) 501 3.3 -18.1°
Drops below altitude 10° 18:40:24 10° 205° (SSW) 1,507 5.9 -18.6°
Sets 18:42:22 0° 202° (SSW) 2,354 6.8 -19.0°
